Central Park, NY

3:21 AM EDT on July 27, 2017 (GMT -0400)
Central Park

Weather History for KNYC - August, 2014

Change the Weather History Date:

Sunday, August 3, 2014

  Actual Average Record
Temperature  
Mean Temperature 71 °F 76 °F  
Max Temperature 76 °F 84 °F 97 °F (2005)
Min Temperature 66 °F 69 °F 55 °F (1927)
Degree Days  
Heating Degree Days 0 0  
Month to date heating degree days 0 0  
Since 1 June heating degree days 0 19  
Since 1 July heating degree days 0 0  
Cooling Degree Days 6 11  
Month to date cooling degree days 23 34  
Year to date cooling degree days 660 670  
Since 1 June cooling degree days 606 601  
Growing Degree Days 20 (Base 50)    
Moisture  
Dew Point 63 °F    
Average Humidity 77    
Maximum Humidity 93    
Minimum Humidity 60    
Precipitation  
Precipitation 0.07 in 0.17 in 2.71 in (1946)
Month to date precipitation 0.48 0.49  
Year to date precipitation 34.49 29.29  
Snow  
Snow 0.00 in 0.00 in 0.00 in (2002)
Month to date snowfall 0.0 0.0  
Since 1 July snowfall 0.0 0.0  
Snow Depth 0.00 in    
Sea Level Pressure  
Sea Level Pressure 30.11 in    
Wind  
Wind Speed 2 mph (East)    
Max Wind Speed 9 mph    
Max Gust Speed 12 mph    
Visibility 6 miles    
Events Rain    
T = Trace of Precipitation, MM = Missing Value Source: NWS Daily Summary

Daily Weather History Graph

Daily Weather History Graph

Search for Another Location

Airport or City:

Trip Planner

Search our weather history database for the weather conditions in past years. The results will help you decide how hot, cold, wet, or windy it might be!

Date:

Astronomy

Aug. 03, 2014 Rise Set
Actual Time 5:54 AM EDT 8:09 PM EDT
Civil Twilight 5:23 AM EDT 8:39 PM EDT
Nautical Twilight 4:46 AM EDT 9:17 PM EDT
Astronomical Twilight 4:04 AM EDT 9:58 PM EDT
Moon 1:15 PM EDT (8/3) No Moon Set
Length of Visible Light 15h 15m
Length of Day
14h 14m
Waxing Crescent, 46% of the Moon is Illuminated
Aug 3
Waxing Crescent
Aug 3
First Quarter
Aug 10
Full
Aug 17
Last Quarter
Aug 25
New

Hourly Weather History & Observations

Time (EDT) Temp. Dew Point Humidity Pressure Visibility Wind Dir Wind Speed Gust Speed Precip Events Conditions
12:51 AM 66.0 °F 61.0 °F 84% 30.12 in 10.0 mi Calm Calm - N/A   Partly Cloudy
1:51 AM 68.0 °F 61.0 °F 78% 30.13 in 10.0 mi Calm Calm - N/A   Overcast
2:51 AM 66.0 °F 63.0 °F 90% 30.12 in 7.0 mi Calm Calm - 0.01 in   Mostly Cloudy
3:09 AM 66.0 °F 63.0 °F 90% 30.14 in 6.0 mi Calm Calm - N/A   Mostly Cloudy
3:38 AM 66.0 °F 63.0 °F 90% 30.14 in 7.0 mi Calm Calm - N/A   Overcast
3:51 AM 66.0 °F 63.0 °F 90% 30.12 in 7.0 mi Calm Calm - N/A   Overcast
4:03 AM 66.0 °F 63.0 °F 90% 30.14 in 6.0 mi Calm Calm - N/A   Overcast
4:23 AM 66.0 °F 63.0 °F 90% 30.14 in 7.0 mi East 3.5 mph - 0.00 in   Overcast
4:51 AM 66.0 °F 63.0 °F 90% 30.11 in 6.0 mi Calm Calm - 0.00 in   Mostly Cloudy
5:51 AM 66.0 °F 63.0 °F 90% 30.12 in 5.0 mi Calm Calm - N/A   Mostly Cloudy
6:51 AM 66.0 °F 64.0 °F 93% 30.12 in 4.0 mi Calm Calm - 0.01 in Rain Light Rain
7:11 AM 66.0 °F 64.0 °F 93% 30.15 in 1.5 mi Calm Calm - 0.02 in Rain Light Rain
7:43 AM 66.9 °F 64.0 °F 90% 30.15 in 2.5 mi East 3.5 mph - 0.03 in Rain Light Rain
7:47 AM 66.2 °F 64.4 °F 94% 30.14 in 2.0 mi Calm Calm - 0.03 in Rain Light Rain
7:51 AM 66.9 °F 64.9 °F 93% 30.12 in 2.0 mi Variable 3.5 mph - 0.03 in Rain Light Rain
8:28 AM 66.9 °F 64.0 °F 90% 30.14 in 3.0 mi East 5.8 mph - 0.02 in   Overcast
8:40 AM 66.9 °F 64.0 °F 90% 30.15 in 3.0 mi Calm Calm - 0.02 in   Mostly Cloudy
8:45 AM 66.2 °F 64.4 °F 94% 30.15 in 2.5 mi ENE 3.5 mph - 0.02 in   Overcast
8:51 AM 66.9 °F 64.0 °F 90% 30.12 in 2.5 mi East 5.8 mph - 0.02 in   Overcast
8:59 AM 66.9 °F 64.0 °F 90% 30.13 in 3.0 mi Variable 5.8 mph - N/A   Overcast
9:06 AM 66.9 °F 64.0 °F 90% 30.13 in 4.0 mi Variable 5.8 mph - N/A   Mostly Cloudy
9:30 AM 68.0 °F 64.0 °F 87% 30.14 in 4.0 mi ENE 8.1 mph - N/A   Mostly Cloudy
9:51 AM 68.0 °F 64.0 °F 87% 30.12 in 5.0 mi SE 6.9 mph - N/A   Mostly Cloudy
10:07 AM 68.0 °F 63.0 °F 84% 30.14 in 6.0 mi Variable 5.8 mph - N/A   Haze
10:33 AM 70.0 °F 63.0 °F 78% 30.15 in 7.0 mi Variable 5.8 mph - N/A   Mostly Cloudy
10:46 AM 69.8 °F 62.6 °F 78% 30.15 in 7.0 mi East 5.8 mph - N/A   Mostly Cloudy
10:51 AM 69.8 °F 62.6 °F 78% 30.15 in 7.0 mi East 4.6 mph - N/A   Scattered Clouds
11:02 AM 71.1 °F 63.0 °F 75% 30.15 in 7.0 mi ENE 3.5 mph - N/A   Mostly Cloudy
11:51 AM 71.1 °F 63.0 °F 75% 30.12 in 8.0 mi ENE 4.6 mph - N/A   Mostly Cloudy
12:30 PM 72.0 °F 62.1 °F 71% 30.13 in 8.0 mi Variable 5.8 mph - N/A   Overcast
12:51 PM 73.9 °F 63.0 °F 68% 30.11 in 8.0 mi NE 6.9 mph - N/A   Overcast
1:47 PM 73.4 °F 62.6 °F 69% 30.11 in 9.0 mi NE 4.6 mph - N/A   Overcast
1:51 PM 73.0 °F 62.1 °F 68% 30.09 in 9.0 mi Variable 4.6 mph - N/A   Overcast
2:25 PM 73.9 °F 61.0 °F 64% 30.11 in 9.0 mi SE 4.6 mph - N/A   Mostly Cloudy
2:51 PM 75.9 °F 61.0 °F 60% 30.08 in 9.0 mi Variable 3.5 mph - N/A   Overcast
3:51 PM 73.9 °F 61.0 °F 64% 30.06 in 9.0 mi Calm Calm - N/A   Overcast
4:51 PM 75.0 °F 63.0 °F 66% 30.04 in 8.0 mi Calm Calm - N/A   Overcast
5:51 PM 75.0 °F 61.0 °F 62% 30.04 in 8.0 mi ENE 3.5 mph - N/A   Overcast
6:51 PM 73.9 °F 62.1 °F 66% 30.04 in 8.0 mi Calm Calm - N/A   Scattered Clouds
7:43 PM 73.0 °F 63.0 °F 71% 30.07 in 8.0 mi Calm Calm - N/A   Mostly Cloudy
7:51 PM 73.0 °F 63.0 °F 71% 30.04 in 8.0 mi Calm Calm - N/A   Overcast
8:11 PM 73.0 °F 63.0 °F 71% 30.07 in 8.0 mi Variable 3.5 mph - N/A   Overcast
8:51 PM 72.0 °F 64.0 °F 76% 30.06 in 10.0 mi Variable 3.5 mph - N/A   Scattered Clouds
9:51 PM 70.0 °F 64.0 °F 81% 30.08 in 10.0 mi Calm Calm - N/A   Clear
10:51 PM 69.8 °F 64.4 °F 83% 30.09 in 10.0 mi Variable 4.6 mph - N/A   Scattered Clouds
11:51 PM 70.0 °F 64.9 °F 84% 30.06 in 10.0 mi Calm Calm - N/A   Mostly Cloudy